Home   Weather   USA   Washington DC   Past weeks
Flag for USA

Past Weather in Washington DC, USA — March 2013

Currently: 73 °F. Passing clouds. (Weather station: Reagan National Airport, USA). See more current weather

March 2013 Weather in Washington DC — Graph

°F

High & Low Weather Summary for March 2013

 TemperatureHumidityPressure
High62 °F (Mar 9, 3:52 pm)93% (Mar 18, 3:55 pm)30.36 "Hg (Mar 18, 3:55 pm)
Low28 °F (Mar 22, 5:52 am)12% (Mar 19, 6:52 pm)29.53 "Hg (Mar 25, 9:52 am)
Average44 °F53%29.98 "Hg
* Reported Mar 1 12:52 am — Mar 31 11:52 pm, Washington DC. Weather by CustomWeather, © 2021

Note: Actual official high and low records may vary slightly from our data, if they occured in-between our weather recording intervals... More about our weather records

Washington DC Weather History for March 1, 2013

Scroll right to see more
 ConditionsComfort  
Time TempWeatherWind HumidityBarometerVisibility
12:52 am
Fri, Mar 1
43 °FOvercast.10 mph56%29.75 "Hg10 mi
1:52 am43 °FOvercast.12 mph56%29.76 "Hg10 mi
2:52 am43 °FOvercast.13 mph56%29.75 "Hg10 mi
3:52 am42 °FOvercast.13 mph57%29.77 "Hg10 mi
4:52 am42 °FPassing clouds.13 mph57%29.76 "Hg10 mi
5:52 am42 °FOvercast.6 mph57%29.78 "Hg10 mi
6:52 am42 °FOvercast.12 mph57%29.79 "Hg10 mi
7:52 am42 °FMostly cloudy.14 mph57%29.81 "Hg10 mi
8:52 am43 °FMore clouds than sun.15 mph53%29.83 "Hg10 mi
9:52 am44 °FMore clouds than sun.18 mph51%29.82 "Hg10 mi
10:52 am44 °FOvercast.16 mph49%29.83 "Hg10 mi
11:52 am45 °FMore clouds than sun.17 mph48%29.83 "Hg10 mi
12:52 pm45 °FMore clouds than sun.12 mph44%29.83 "Hg10 mi
1:52 pm46 °FOvercast.12 mph44%29.81 "Hg10 mi
2:52 pm45 °FMore clouds than sun.12 mph44%29.81 "Hg10 mi
3:52 pm44 °FOvercast.16 mph45%29.81 "Hg10 mi
4:52 pm44 °FMostly cloudy.15 mph43%29.83 "Hg10 mi
5:52 pm43 °FMostly cloudy.13 mph47%29.84 "Hg10 mi
6:52 pm42 °FOvercast.16 mph47%29.85 "Hg10 mi
7:52 pm42 °FOvercast.14 mph49%29.86 "Hg10 mi
8:52 pm41 °FOvercast.15 mph53%29.88 "Hg10 mi
9:52 pm39 °FOvercast.13 mph57%29.89 "Hg10 mi
10:52 pm39 °FOvercast.13 mph57%29.89 "Hg10 mi
11:52 pm38 °FOvercast.14 mph53%29.89 "Hg10 mi
Weather by CustomWeather, © 2021

See weather overview